#timestamp,LO_Frequency,Hit 
1504555215.6,286047004.2,N
1504555235.4,286047003.2,N
1504555255.3,286047001.4,N
1504555275.1,286047002.4,N
1504555276.0,286047002.4,N
1504555295.8,286047004.3,N
1504555315.7,286047002.0,N
1504555335.5,286047005.7,P
1504555355.3,286047002.8,N
1504555375.2,286047001.1,N
1504555395.9,286047000.9,N
1504555415.7,286047000.5,N
1504555435.6,286047002.1,N
1504555455.4,286047000.0,N
1504555475.2,286047002.5,N
1504555495.0,286047004.0,N
1504555496.0,286047004.0,N
1504555515.8,286047004.5,N
1504555535.6,286047007.1,P
1504555555.5,286047004.2,N
1504555575.3,286047003.7,N
1504555595.1,286047003.5,N
1504555615.9,286047001.8,N
1504555635.7,286047000.3,N
1504555655.5,286047000.8,N
1504555675.3,286046999.5,N
1504555695.2,286046998.3,N
1504555715.0,286046998.1,N
1504555715.9,286046998.1,N
1504555735.7,286047000.4,N
1504555755.6,286047002.4,N
1504555775.4,286047003.7,N
1504555795.2,286047002.1,N
1504555815.1,286047002.5,N
1504555816.0,286047002.5,N
1504555835.8,286047000.9,N
1504555855.6,286047002.8,N
1504555875.5,286047002.1,N
1504555895.3,286047002.5,N
1504555915.1,286047005.3,N
1504555935.9,286047003.3,N
1504555955.7,286047009.1,P
1504555975.5,286047005.6,N
1504555995.4,286047003.8,N
1504556015.2,286047003.8,N
1504556035.0,286047007.5,P
1504556035.9,286047007.5,P
1504556055.8,286047005.8,P
1504556075.6,286047002.1,N
1504556095.4,286047002.6,N
1504556115.3,286046999.7,N
1504556135.1,286047004.2,N
1504556136.0,286047004.2,N
1504556155.8,286047005.2,N
1504556175.7,286047005.4,N
1504556195.5,286047003.2,N
1504556215.3,286047005.7,N
1504556235.2,286047005.2,N
1504556255.9,286047006.0,N
1504556275.7,286047004.8,N
1504556295.6,286047009.9,P
1504556315.4,286047005.3,N
1504556335.2,286047005.8,N
1504556355.1,286047008.3,P
1504556356.0,286047008.3,P
1504556375.8,286047004.0,P
1504556395.6,286047000.6,N
1504556415.5,286046998.3,N
1504556435.3,286046998.9,N
1504556455.1,286046998.4,N
1504556475.9,286047002.4,N
1504556495.7,286047002.7,N
1504556515.5,286047002.2,N
1504556535.3,286047002.8,N
1504556555.2,286047004.9,N
1504556575.0,286047003.5,N
1504556575.9,286047003.5,N
1504556595.7,286047001.8,N
1504556615.6,286047007.2,N
1504556635.4,286047003.3,N
1504556655.2,286047002.6,N
1504556675.1,286047002.2,N
1504556676.0,286047002.2,N
1504556695.8,286047004.3,N
1504556715.6,286047004.3,N
1504556735.5,286047003.7,N
1504556755.3,286047003.8,N
1504556775.1,286047003.6,N
1504556795.9,286047006.9,N
1504556815.7,286047005.6,N
1504556835.5,286047005.6,N
1504556855.3,286047003.3,N
1504556875.2,286047003.3,N
1504556895.0,286047003.7,N
1504556895.9,286047003.7,N
1504556915.7,286047001.8,N
1504556935.6,286047001.3,N
1504556955.4,286047006.0,N
1504556975.2,286047005.6,N
1504556995.1,286047005.7,P
1504556996.0,286047005.7,P
1504557015.8,286047002.5,N
1504557035.6,286047001.7,N
1504557055.5,286047002.2,N
1504557075.3,286047000.7,N
1504557095.1,286047000.8,N
1504557115.9,286046998.8,N
1504557135.7,286047001.1,N
1504557155.5,286046998.4,N
1504557175.4,286046998.9,N
1504557195.2,286046999.3,N
1504557215.0,286046998.2,N
1504557215.9,286046998.2,N
1504557235.7,286047000.6,N
1504557255.6,286047000.5,N
1504557275.4,286047001.1,N
1504557295.2,286046999.3,N
1504557315.1,286046998.6,N
1504557316.0,286046998.6,N
1504557335.8,286047000.8,N
1504557355.6,286046999.1,N
1504557375.5,286046999.5,N
1504557395.3,286047000.6,N
1504557415.1,286046998.4,N
1504557435.9,286046998.5,N
1504557455.7,286046998.6,N
1504557475.5,286047000.5,N
1504557495.4,286047002.0,N
1504557515.2,286047005.1,N
1504557535.0,286047004.8,N
1504557535.9,286047004.8,N
1504557555.8,286047009.1,P
1504557575.6,286047009.0,N
1504557595.4,286047010.4,N
1504557615.3,286047006.1,N
1504557635.1,286047007.2,N
1504557636.0,286047007.2,N
1504557655.8,286047009.5,P
1504557675.7,286047005.2,P
1504557695.5,286046999.7,N
1504557715.3,286047001.2,N
1504557735.2,286046999.4,N
1504557755.9,286046999.3,N
1504557775.7,286046999.4,N
1504557795.5,286046997.3,N
1504557815.4,286046997.1,N
1504557835.2,286046995.4,N
1504557855.0,286046996.8,N
1504557855.9,286046996.8,N
1504557875.8,286046999.1,N
1504557895.6,286046997.3,N
1504557915.4,286046996.9,N
1504557935.3,286046999.1,N
1504557955.1,286046998.8,N
1504557956.0,286046998.8,N
1504557975.8,286046996.5,N
1504557995.7,286047000.5,N
1504558015.5,286047002.6,N
1504558035.3,286047000.0,N
1504558055.1,286046998.5,N
1504558075.9,286047000.4,N
1504558095.7,286047002.7,N
1504558115.5,286047002.4,N
1504558135.4,286047001.3,N
1504558155.2,286047001.9,N
1504558175.0,286047000.3,N
1504558175.9,286047000.3,N
1504558195.8,286047000.4,N
1504558215.6,286047001.9,N
1504558235.4,286047003.2,N
1504558255.3,286047002.9,N
1504558275.1,286047004.3,N
1504558276.0,286047004.3,N
1504558295.8,286047009.1,P
1504558315.7,286047009.0,N
1504558335.5,286047005.4,N
1504558355.3,286047007.2,N
1504558375.2,286047005.0,N
1504558395.9,286047005.0,N
1504558415.7,286047005.4,N
1504558435.6,286047001.3,N
1504558455.4,286047003.7,N
1504558475.2,286047005.1,N
1504558495.0,286047005.4,N
1504558495.9,286047005.4,N
1504558515.8,286047008.1,P
1504558535.6,286047005.2,P
1504558555.5,286047005.5,P
1504558575.3,286047003.2,N
1504558595.1,286047004.6,N
1504558615.9,286047005.9,P
1504558635.7,286047000.5,N
1504558655.5,286047000.2,N
1504558675.3,286046997.3,N
1504558695.2,286046996.5,N
1504558715.0,286046998.3,N
1504558715.9,286046998.3,N
1504558735.7,286047001.1,N
1504558755.6,286046998.6,N
1504558775.4,286046998.4,N
1504558795.2,286046997.3,N
